#timestamp,LO_Frequency,Hit,StdDev 
1518595215.1,286046994.0,N
1518595216.0,286046994.0,N
1518595235.8,286046995.2,N
1518595255.6,286047001.2,N
1518595275.5,286047003.2,N
1518595295.3,286047000.7,N
1518595315.2,286046997.9,N
1518595335.9,286046996.1,N
1518595355.7,286046995.6,N
1518595375.6,286046995.9,N
1518595395.4,286046992.0,N
1518595415.2,286046996.6,N
1518595435.1,286046997.7,N
1518595436.0,286046997.7,N
1518595455.8,286046997.9,N
1518595475.7,286046994.2,N
1518595495.5,286046996.1,N
1518595515.3,286046996.2,N
1518595535.2,286046994.7,N
1518595555.0,286046994.2,N
1518595555.9,286046994.2,N
1518595575.8,286046994.2,N
1518595595.6,286046995.3,N
1518595615.4,286046993.4,N
1518595635.3,286046994.3,N
1518595655.1,286046994.8,N
1518595675.8,286046995.9,N
1518595695.7,286046994.6,N
1518595715.5,286046993.9,N
1518595735.4,286046998.4,N
1518595755.2,286046996.6,N
1518595775.0,286046996.1,N
1518595775.9,286046996.1,N
1518595795.8,286046997.2,N
1518595815.6,286046995.2,N
1518595835.5,286046993.8,Y
1518595855.3,286046997.5,P
1518595875.1,286046998.1,N
1518595895.9,286046997.2,N
1518595915.7,286046996.6,Y
1518595935.5,286046999.1,P
1518595955.4,286046996.6,P
1518595975.2,286047003.1,N
1518595995.1,286047006.5,N
1518595996.0,286047006.5,N
1518596015.8,286047005.4,N
1518596035.6,286047003.7,N
1518596055.5,286047012.7,Y
1518596075.3,286047010.6,P
1518596095.1,286047012.2,N
1518596115.9,286047014.9,P
1518596135.7,286047017.8,Y
1518596155.6,286047010.1,P
1518596175.4,286047011.2,P
1518596195.2,286047017.0,P
1518596215.1,286047007.8,N
1518596216.0,286047007.8,N
1518596235.8,286047010.5,Y
1518596255.7,286047007.3,P
1518596275.5,286047006.7,P
1518596295.3,286047005.1,N
1518596315.2,286047010.8,Y
1518596335.0,286047005.2,P
1518596335.9,286047005.2,P
1518596355.8,286047009.0,P
1518596375.6,286047008.8,Y
1518596395.4,286047002.4,P
1518596415.3,286046995.4,N
1518596435.1,286046990.1,N
1518596455.8,286046990.4,N
1518596475.7,286046999.5,N
1518596495.5,286046999.9,N
1518596515.4,286046996.0,N
1518596535.2,286046994.0,N
1518596555.0,286046996.7,N
1518596555.9,286046996.7,N
1518596575.8,286046997.7,N
1518596595.6,286046994.0,N
1518596615.5,286046990.9,N
1518596635.3,286046993.8,N
1518596655.1,286046990.5,N
1518596675.9,286046996.3,N
1518596695.7,286047002.1,N
1518596715.5,286046998.6,N
1518596735.4,286046990.9,N
1518596755.2,286046986.0,Y
1518596775.1,286046989.7,P
1518596776.0,286046989.7,P
1518596795.8,286047001.2,N
1518596815.6,286047009.2,N
1518596835.5,286047005.2,N
1518596855.3,286047002.5,N
1518596875.2,286047000.8,N
1518596895.9,286046998.4,N
1518596915.7,286047000.4,N
1518596935.6,286047002.7,N
1518596955.4,286047006.2,N
1518596975.2,286047008.7,N
1518596995.1,286047001.4,N
1518596996.0,286047001.4,N
1518597015.8,286047002.0,N
1518597035.7,286046999.3,N
1518597055.5,286046995.0,N
1518597075.3,286046990.5,N
1518597095.2,286046988.0,N
1518597115.0,286046983.5,N
1518597115.9,286046983.5,N
1518597135.8,286046981.9,N
1518597155.6,286046979.5,N
1518597175.4,286046978.4,N
1518597195.3,286046981.3,N
1518597215.1,286046985.1,N
1518597235.8,286046983.6,N
1518597255.7,286046982.6,N
1518597275.5,286046981.1,N
1518597295.4,286046979.8,N
1518597315.2,286046977.8,N
1518597335.0,286046976.4,N
1518597335.9,286046976.4,N
1518597355.8,286046971.1,N
1518597375.6,286046970.3,N
1518597395.4,286046968.5,N
1518597415.3,286046967.1,N
1518597435.1,286046963.9,Y
1518597455.9,286046974.4,P
1518597475.7,286046976.1,P
1518597495.5,286046977.4,P
1518597515.4,286046981.4,Y
1518597535.2,286047005.9,P
1518597555.1,286047004.7,N
1518597556.0,286047004.7,N
1518597575.8,286047003.7,N
1518597595.6,286047003.5,N
1518597615.5,286047004.5,N
1518597635.3,286047006.7,N
1518597655.2,286047008.5,N
1518597675.9,286047010.3,N
1518597695.7,286047009.5,N
1518597715.6,286047008.4,N
1518597735.4,286047006.4,N
1518597755.2,286047004.9,N
1518597775.1,286047005.9,N
1518597776.0,286047005.9,N
1518597795.8,286047005.2,N
1518597815.7,286047007.4,N
1518597835.5,286047008.6,N
1518597855.3,286047010.1,N
1518597875.2,286047013.5,N
1518597895.0,286047012.2,N
1518597895.9,286047012.2,N
1518597915.7,286047012.1,N
1518597935.6,286047007.8,N
1518597955.4,286047008.1,N
1518597975.3,286047006.8,N
1518597995.1,286047004.7,N
1518597996.0,286047004.7,N
1518598015.8,286047007.8,N
1518598035.7,286047009.0,N
1518598055.5,286047013.3,Y
1518598075.4,286047007.2,P
1518598095.2,286047005.2,P
1518598115.0,286047005.9,P
1518598115.9,286047005.9,Y
1518598135.8,286046999.0,P
1518598155.6,286047001.2,N
1518598175.5,286047000.7,N
1518598195.3,286047003.4,N
1518598215.1,286047000.0,N
1518598235.9,286047009.1,Y
1518598255.7,286047009.0,P
1518598275.5,286047005.1,N
1518598295.4,286047004.2,N
1518598315.2,286047000.4,N
1518598335.1,286047002.5,N
1518598336.0,286047002.5,N
1518598355.8,286046999.4,N
1518598375.6,286047004.0,N
1518598395.5,286047006.5,N
1518598415.3,286047010.2,Y
1518598435.2,286047006.9,P
1518598455.9,286047004.8,N
1518598475.7,286047011.2,P
1518598495.6,286047012.3,Y
1518598515.4,286047004.6,P
1518598535.2,286047010.4,P
1518598555.1,286047009.1,P
1518598556.0,286047009.1,Y
1518598575.8,286046997.0,P
1518598595.7,286046997.1,N
1518598615.5,286046996.4,N
1518598635.3,286046998.3,N
1518598655.2,286046995.9,N
1518598675.0,286046996.3,N
1518598675.9,286046996.3,N
1518598695.8,286046997.9,N
1518598715.6,286047000.4,N
1518598735.4,286046999.4,N
1518598755.3,286046997.9,N
1518598805.1,286047000.9,E
